Rechercher aéroport 
image banner adimage banner adimage banner ad
image banner ad

CN02 - San Francisco Va Medical Center

Situé à San Francisco, United States

ICAO - CN02, IATA -

Données fournies par Airmate  

Information générale

Coordonnées: N37°47'1" W122°30'24"
Élévation : 350 feet MSL.
 
Voir autres Aéroports à California

Données opérationnelles

Special qualification required
Heure actuelle UTC:
Heure actuelle locale:
Météo à : KSFO - San Francisco Intl ( 22 km )
METAR: KSFO 212256Z 30012KT 10SM FEW200 32/07 A3002 RMK AO2 SLP165 T03170072
TAF: KSFO 212103Z 2121/2224 35006KT P6SM FEW045 FEW200 FM212200 29012KT 6SM HZ FEW200 FM220300 30008KT P6SM FEW200 FM221000 VRB05KT P6SM FEW011 FM222100 29012KT P6SM FEW200
Voir NOTAMs / SUP AIP / TFR affectant cet aéroport [VIEW]
Fréquences de communication: [VIEW]

Pistes:

Coordonnées de l'aéroport

Adresse: San Francisco United States

Vue satellite de CN02